Raduga

operational
NORAD ID: 17611 Int'l Des: 1987-028 Owner: UNKS Country: SU
HEOCIRCULAR

About Raduga

Description loading...

Live Position

Loading 3D Globe...

Upcoming Passes

Altitude History

Altitude vs Time

uPlot chart will show altitude changes over time

Two-Line Element Set

1 17611U 87028A 26060.82266768 -.00000085 00000-0 00000-0 0 9994
2 17611 13.4478 329.1030 0026036 171.2085 15.5916 0.95960454137284
Epoch: Mar 1, 2026 • Age: 53 hours

Current Status

Altitude 37119.9 km
Velocity 3.02 km/s
Sub-Earth Point -10.99°S, 39.64°E
Launch Date Mar 19, 1987
Age 38.9 years
Type other

Technical Details

Classification Payload
Mass 1965.00 kg
Dry Mass 1800.00 kg
Total Mass 1965.00 kg
Length 5.50 m
Diameter 2.50 m
Span 9.50 m
Shape Step Cyl + 2 Pan
Manufacturer NPOPM
Bus Type Raduga
Phase Status In Orbit
Owner/State UNKS/SU

Large Constellations

Loading constellations...